Location: Gard�res
(43.2833°N, 0.1167°W)
Time: 09:53:51
(UTC+00:00)

Daily predictions for brighter satellites

Satellite Brightness Start Highest point End
(mag) Time Altitude Azimuth Time Altitude Azimuth Time Altitude Azimuth
Cosmos 2369 4.4 16:47:58 10° N 16:53:07 33° NE 16:58:13 10° ESE
Cosmos 1842 Rocket 3.7 16:50:47 10° S 16:55:15 82° W 16:59:45 10° N
USA 234 3.4 16:49:31 10° ESE 16:55:51 55° NNE 17:02:11 10° NW
CZ-4C R/B 3.6 16:50:47 10° NNW 16:56:58 32° NE 17:04:05 10° E
Cosmos 1092 Rocket 4.3 16:52:39 10° N 16:58:48 47° ENE 17:04:51 10° SSE
Cosmos 2084 3.5 16:54:42 10° NNW 16:59:01 69° NE 17:03:29 10° SE
Cosmos 1812 4.4 16:57:14 10° ESE 16:59:26 15° E 17:01:37 10° NE
NOSS 3-1 (A) 4.1 16:51:59 10° NW 16:59:34 74° NE 17:08:23 10° SE
NOSS 3-1 (C) 4.5 16:52:03 10° NW 16:59:41 77° WSW 17:08:33 10° SSE
SL-16 R/B 4.0 17:00:16 10° NNE 17:01:45 11° NE 17:03:14 10° NE
ISS -2.5 16:58:56 10° NW 17:01:52 26° NNE 17:04:48 10° ENE
Meteor 1-25 Rocket 4.3 16:58:58 10° N 17:04:28 57° ENE 17:09:58 10° SSE
SMAP 3.2 17:00:11 10° SSE 17:04:41 52° ENE 17:09:13 10° N
Cosmos 2082 Rocket 3.0 16:59:44 10° SSE 17:04:45 33° ESE 17:09:45 10° NE
Meteor PRIRODA 3.7 17:01:45 10° SSE 17:05:23 85° W 17:09:01 10° NNW
Cosmos 1939 Rocket 3.0 17:01:53 10° SSE 17:05:55 56° ENE 17:09:55 10° N
CORIOLIS 4.3 17:02:27 10° SE 17:07:39 52° ENE 17:12:55 10° N
NOAA 12 4.2 17:05:31 10° SSE 17:10:51 88° WSW 17:16:13 10° NNW
Cosmos 44 4.5 17:07:29 10° NW 17:11:59 44° WSW 17:16:12 10° S
CZ-4B DEB 4.4 17:08:44 10° SE 17:14:02 52° ENE 17:19:21 10° N
Cosmos 1602 3.8 17:14:09 10° N 17:17:56 54° E 17:21:44 10° SSE
AQUARIUS 4.2 17:14:11 10° SSE 17:18:35 61° ENE 17:23:02 10° N
Cosmos 540 Rocket 3.4 17:14:40 10° S 17:19:42 66° ESE 17:24:46 10° NNE
Cosmos 2034 Rocket 4.3 17:14:56 10° SSW 17:21:03 72° W 17:27:13 10° N
ARGOS 4.0 17:19:49 10° ESE 17:24:22 28° ENE 17:28:54 10° N
Cosmos 2279 Rocket 4.5 17:19:16 10° SSE 17:24:52 37° E 17:30:29 10° NNE
COSMOS 2406 3.2 17:19:34 10° SSW 17:25:19 81° ESE 17:31:04 10° NNE
Cosmos 1833 Rocket 2.9 17:21:01 10° SSW 17:26:38 77° WNW 17:32:18 10° NNE
COSMO-SKYMED 1 3.5 17:23:35 10° NE 17:27:18 27° E 17:30:58 10° SSE
Cosmos 1782 2.9 17:24:22 10° S 17:28:16 57° E 17:32:12 10° NNE
ATLAS 5 CENTAUR R/B 3.6 17:24:54 10° NW 17:31:08 22° N 17:33:07 16° NE
Meteor 2-21 4.4 17:25:15 10° N 17:31:17 63° ENE 17:37:16 10° SSE
Cosmos 1633 Rocket 3.8 17:31:58 10° NNE 17:35:51 30° ENE 17:39:43 10° SE
CZ-2D R/B 3.2 17:35:37 10° SSE 17:39:23 62° ENE 17:43:10 10° N
Cosmos 1898 Rocket 3.9 17:34:45 10° NNW 17:39:58 68° WSW 17:45:07 10° S
Cosmos 1634 Rocket 4.0 17:35:23 10° S 17:41:41 80° E 17:48:03 10° N
COSMOS 2455 2.8 17:36:32 10° SSW 17:42:33 81° ESE 17:48:14 12° NNE
PAYLOAD B 4.2 17:38:16 10° SSE 17:43:49 72° ENE 17:49:25 10° N
CZ-4B R/B 3.3 17:41:10 10° SE 17:46:24 52° ENE 17:51:35 10° N
CZ-2C R/B 2.8 17:41:50 10° NNE 17:46:50 47° E 17:51:47 10° S
Cosmos 1151 Rocket 3.2 17:43:07 10° SSE 17:47:17 49° E 17:51:27 10° NNE
Cosmos 1500 3.0 17:43:43 10° N 17:47:28 79° E 17:51:11 10° S
Cosmos 2026 Rocket 4.0 17:42:58 10° N 17:49:08 88° W 17:55:11 10° S
Lacrosse 5 rocket 2.7 17:47:08 10° NNW 17:50:12 21° NNE 17:50:36 21° NE
Okean O Rocket 2.0 17:46:20 10° SE 17:50:30 40° ENE 17:54:41 10° N
Meteor 2-14 Rocket 4.5 17:48:17 10° N 17:54:25 86° W 18:00:29 10° S
Cosmos 2208 Rocket 4.3 17:53:18 10° S 17:58:26 47° ESE 18:01:39 22° NE
Cosmos 1666 Rocket 3.4 17:57:20 10° N 18:01:48 71° E 18:06:10 10° SSE
H-2A R/B 2.0 17:57:19 10° SSE 18:02:31 86° WSW 18:07:36 10° NNW
NOSS 2-2 (C) 4.4 17:57:10 10° NW 18:02:33 84° NE 18:10:11 10° SE
Meteor 1-11 Rocket 4.4 17:58:51 10° N 18:03:46 30° ENE 18:05:46 24° ESE
Cosmos 1328 Rocket 3.6 18:00:28 10° S 18:04:48 55° E 18:07:30 22° NNE
Cosmos 1470 Rocket 4.1 18:00:50 10° N 18:04:58 36° ENE 18:09:06 10° SE
USA 267 4.0 18:01:03 17° NE 18:05:53 45° NNW 18:12:01 10° W
Cosmos 1655 Rocket 4.3 18:01:04 10° N 18:07:08 43° ENE 18:13:08 10° SSE
USA 305 4.4 18:05:11 10° NW 18:08:27 21° N 18:08:46 21° NNE
Cosmos 2360 Rocket 4.0 18:05:34 10° N 18:07:10 14° NNE 18:07:10 14° NNE
Landsat 5 3.5 18:08:42 38° NE 18:09:54 52° E 18:13:46 10° S
Cosmos 2180 Rocket 4.4 18:07:12 10° S 18:13:29 68° E 18:19:44 10° NNE
Cosmos 841 Rocket 4.1 18:08:50 10° SW 18:13:53 54° WNW 18:18:54 10° NNE
SKYMED 2 3.5 18:12:01 16° NNE 18:15:32 89° ESE 18:19:51 10° SSW
Feng Yun 1-1 Rocket 4.5 18:10:08 10° SE 18:15:50 51° ENE 18:21:31 10° N
Cosmos 1666 2.5 18:13:12 10° N 18:16:56 84° W 18:20:38 10° S
Meteor 2-8 Rocket 4.3 18:10:58 10° S 18:17:04 71° E 18:23:13 10° NNE
ATLAS CENTAUR R/B 3.6 18:09:52 10° WSW 18:18:20 40° NW 18:20:43 23° NNE
Cosmos 1125 Rocket 4.1 18:18:06 10° N 18:22:14 36° NE 18:22:14 36° NE
SL-24 R/B - RUBIN 2 4.0 18:22:14 10° NW 18:26:38 59° WSW 18:30:50 10° SSE
Cosmos 2322 Rocket 3.3 18:24:17 10° N 18:27:49 27° NNE 18:27:49 27° NNE
SL-08 RB Rocket 3.6 18:29:03 10° SSE 18:33:41 79° ENE 18:38:19 10° N
Cosmos 1812 4.1 18:31:13 10° SSW 18:34:48 37° WNW 18:37:47 14° NNW
Cosmos 1980 Rocket 2.9 18:29:52 10° NNW 18:35:23 54° WSW 18:40:49 10° S
USA 234 4.0 18:32:33 10° SSE 18:38:53 52° SW 18:45:14 10° WNW
ISS -2.6 18:35:34 10° WNW 18:37:58 42° WNW 18:37:58 42° WNW
deb Chang Zheng 4 4.4 18:35:36 10° S 18:39:46 50° W 18:43:59 10° NNW
CZ-4C R/B 3.1 18:38:52 10° NW 18:46:17 82° WSW 18:54:51 10° SSE
Cosmos 1515 Rocket 3.9 18:42:34 10° S 18:46:04 55° S 18:46:04 55° S
SL-16 R/B 2.5 18:41:39 10° NNW 18:46:11 47° NNE 18:46:11 47° NNE
Cosmos 2082 Rocket 3.4 18:43:26 10° SW 18:48:43 39° WNW 18:52:36 17° N
Cosmos 44 Rocket 3.6 18:49:11 10° NNW 18:53:09 57° NNW 18:53:09 57° NNW
Cosmos 2333 Rocket 4.5 18:54:08 10° N 18:54:26 11° N 18:54:26 11° N
COSMO-SKYMED 1 4.4 19:00:37 15° NNW 19:03:25 29° WNW 19:07:08 10° SW
ARGOS 4.3 18:59:19 10° SSW 19:04:26 41° W 19:09:32 10° NNW
Meteor 1-27 Rocket 4.1 19:02:43 10° S 19:06:41 49° S 19:06:41 49° S
DMSP B5D2-2 4.3 19:10:16 66° SW 19:10:16 66° SW 19:14:47 10° SSW
Cosmos 2298 Rocket 4.2 19:04:37 10° NNW 19:09:28 68° WNW 19:09:28 68° WNW
Cosmos 921 Rocket 4.3 19:06:35 10° SW 19:09:34 37° WSW 19:09:34 37° WSW
CZ-2C R/B 3.8 19:08:26 10° SW 19:09:35 15° SSW 19:09:35 15° SSW
Cosmos 2266 Rocket 4.4 19:09:55 10° NNW 19:16:12 62° W 19:22:30 10° S
GEOS 3 Rocket 4.2 19:19:06 51° NW 19:19:06 51° NW 19:22:56 10° NW
Cosmos 1818 4.0 19:14:41 10° NW 19:19:33 59° W 19:19:33 59° W
Okean O Rocket 4.1 19:23:42 10° SW 19:26:59 20° W 19:30:17 10° NW
Lacrosse 5 rocket 4.1 19:25:39 10° NW 19:26:13 14° NW 19:26:13 14° NW
BREEZE-M DEB (TANK) 4.2 19:21:08 10° SW 19:44:38 82° NW 19:44:57 81° N
Cosmos 2322 Rocket 4.5 20:08:09 10° NW 20:09:40 18° NW 20:09:40 18° NW
